Location: Frizzleburg
(41.0764°N, 80.4548°W)
Time: 16:33:31
(UTC+00:00)

Cosmos 990 Rocket - Pass Details

Date: 17 November 2019
Orbit: 746 x 770 km, 74.0° (Epoch: 06 December)

Event Time Altitude Azimuth Distance (km) Brightness Sun altitude
Exits shadow 09:47:21 77° 159° (SSE) 777 3.9 -27.1°
Maximum altitude 09:47:39 82° 108° (ESE) 767 3.9 -27.0°
Drops below altitude 10° 09:52:52 10° 21° (NNE) 2,297 6.7 -26.1°
Sets 09:55:15 0° 21° (NNE) 3,231 7.5 -25.6°
